Aérodrome :
LOGIN :

S'inscrire | Disclaimer

   EN    FR    IT 

 










Légende :    VFR   VFR Marginal   IFR   IFR Intensif   IFR Très Intensif
Visi : 
Plafond : 
>= 8 km
>= 3000ft
5 à 8 km
1000 à 3000 ft
1500m à 5 km
500 à 1000 ft
800 à 1500m
200 à 500 ft
< 800m
< 200 ft
Symboles :   Orages  Brouillard  Fortes neiges  Fortes précipitations  Vent > 20 kt
SIGMETs :   Divers  Orages  Givrage  Turbulence  Onde Orograph.  Cendres Volcan.







- Altitude de l'aérodrome : 1470 ft


LSMD - Dubendorf Military

DERNIER METAR :
  • 261850Z AUTO 32004KT 9999NDV FEW092 18/08 Q1014 RMK

METARs EXPIRÉS :
  • 261820Z AUTO 32004KT 280V350 9999NDV BKN085 20/09 Q1014 RMK
  • 261750Z AUTO 34004KT 300V020 9999NDV BKN085 BKN100 20/10 Q1015 RMK
  • 261720Z AUTO 30004KT 250V350 9999NDV FEW082 BKN100 20/10 Q1015 RMK
  • 261650Z AUTO 27005KT 240V310 9999NDV FEW085 21/10 Q1015 RMK
  • 261620Z AUTO 30005KT 260V330 9999NDV SCT098 20/10 Q1015 RMK

Prévision TAF périmée.
Pas de NOTAMs connus pour ce terrain.



MET'MAP, la Météo Aéronautique d'un coup d'oeil ! - Copyright ORBIFLY Décembre 2007 - Disclaimer

ORBIFLY MET'MAP TEAM :

Programmation & Développement : Alexandra Zaïnal
Conception & Développement : Baudouin d'Aumeries
Co-Programmation & Développement : Marc-Olivier Méhu
Soutien technique & logistique : Manuel Goepfert

Contact : metmap@orbifly.com




SOURCES & CREDITS :

   NOAA